Wetterdaten: Samstag, 14.05.2016
Datum Zeit Temp. Auen Feucht Auen Luftdruck Regen Richtung Richtung Windben
14.05.2016 00:00 11,3 C 84 % 1001,4 hPa 0,0 mm W-NW 288 11,3 km/h (2 Bft)
14.05.2016 00:05 11,3 C 84 % 1001,5 hPa 0,2 mm W-NW 287 12,9 km/h (3 Bft)
14.05.2016 00:10 11,3 C 84 % 1001,5 hPa 0,2 mm W-SW 258 11,3 km/h (2 Bft)
14.05.2016 00:15 11,3 C 84 % 1001,5 hPa 0,2 mm W 274 9,7 km/h (2 Bft)
14.05.2016 00:20 11,3 C 84 % 1001,6 hPa 0,2 mm W 272 9,7 km/h (2 Bft)
14.05.2016 00:25 11,3 C 84 % 1001,6 hPa 0,0 mm W 265 6,4 km/h (2 Bft)
14.05.2016 00:30 11,3 C 84 % 1001,5 hPa 0,0 mm W 264 9,7 km/h (2 Bft)
14.05.2016 00:35 11,3 C 84 % 1001,6 hPa 0,0 mm W 260 11,3 km/h (2 Bft)
14.05.2016 00:40 11,3 C 84 % 1001,6 hPa 0,0 mm W 259 6,4 km/h (2 Bft)
14.05.2016 00:45 11,3 C 84 % 1001,6 hPa 0,2 mm W 273 6,4 km/h (2 Bft)
14.05.2016 00:50 11,3 C 84 % 1001,6 hPa 0,0 mm W 275 9,7 km/h (2 Bft)
14.05.2016 00:55 11,3 C 84 % 1001,6 hPa 0,2 mm W 265 8,0 km/h (2 Bft)
14.05.2016 01:00 11,2 C 84 % 1001,6 hPa 0,2 mm W-NW 286 8,0 km/h (2 Bft)
14.05.2016 01:05 11,2 C 84 % 1001,6 hPa 0,0 mm W 280 9,7 km/h (2 Bft)
14.05.2016 01:10 11,2 C 84 % 1001,7 hPa 0,2 mm W 275 8,0 km/h (2 Bft)
14.05.2016 01:15 11,2 C 84 % 1001,6 hPa 0,0 mm W 266 6,4 km/h (2 Bft)
14.05.2016 01:20 11,2 C 84 % 1001,7 hPa 0,2 mm W 267 8,0 km/h (2 Bft)
14.05.2016 01:25 11,2 C 84 % 1001,7 hPa 0,2 mm W-SW 249 9,7 km/h (2 Bft)
14.05.2016 01:30 11,2 C 84 % 1001,7 hPa 0,0 mm W 271 14,5 km/h (3 Bft)
14.05.2016 01:35 11,2 C 84 % 1001,6 hPa 0,0 mm W-SW 255 11,3 km/h (2 Bft)
14.05.2016 01:40 11,2 C 84 % 1001,6 hPa 0,0 mm W 273 11,3 km/h (2 Bft)
14.05.2016 01:45 11,2 C 84 % 1001,6 hPa 0,0 mm W-NW 291 14,5 km/h (3 Bft)
14.05.2016 01:50 11,2 C 84 % 1001,6 hPa 0,0 mm W 263 16,1 km/h (3 Bft)
14.05.2016 01:55 11,2 C 84 % 1001,7 hPa 0,0 mm W 274 12,9 km/h (3 Bft)
14.05.2016 02:00 11,2 C 84 % 1001,8 hPa 0,2 mm W-NW 292 11,3 km/h (2 Bft)
14.05.2016 02:05 11,2 C 84 % 1001,7 hPa 0,0 mm W-SW 237 8,0 km/h (2 Bft)
14.05.2016 02:10 11,2 C 84 % 1001,7 hPa 0,0 mm W 266 8,0 km/h (2 Bft)
14.05.2016 02:15 11,2 C 84 % 1001,7 hPa 0,0 mm W 263 11,3 km/h (2 Bft)
14.05.2016 02:20 11,2 C 84 % 1001,7 hPa 0,0 mm W-NW 282 11,3 km/h (2 Bft)
14.05.2016 02:25 11,2 C 84 % 1001,7 hPa 0,2 mm W 281 6,4 km/h (2 Bft)
14.05.2016 02:30 11,2 C 84 % 1001,7 hPa 0,0 mm W 263 9,7 km/h (2 Bft)
14.05.2016 02:35 11,2 C 84 % 1001,6 hPa 0,0 mm W-SW 254 11,3 km/h (2 Bft)
14.05.2016 02:40 11,3 C 84 % 1001,6 hPa 0,0 mm W-SW 238 9,7 km/h (2 Bft)
14.05.2016 02:45 11,3 C 84 % 1001,6 hPa 0,0 mm W 273 11,3 km/h (2 Bft)
14.05.2016 02:50 11,3 C 84 % 1001,6 hPa 0,0 mm W 281 6,4 km/h (2 Bft)
14.05.2016 02:55 11,3 C 84 % 1001,5 hPa 0,0 mm W 265 4,8 km/h (1 Bft)
14.05.2016 03:00 11,3 C 84 % 1001,6 hPa 0,2 mm W 265 3,2 km/h (1 Bft)
14.05.2016 03:05 11,2 C 84 % 1001,5 hPa 0,6 mm W 281 6,4 km/h (2 Bft)
14.05.2016 03:10 11,2 C 84 % 1001,6 hPa 0,4 mm W 261 8,0 km/h (2 Bft)
14.05.2016 03:15 11,2 C 84 % 1001,6 hPa 0,4 mm W 265 4,8 km/h (1 Bft)
14.05.2016 03:20 11,1 C 84 % 1001,6 hPa 0,2 mm W-NW 284 4,8 km/h (1 Bft)
14.05.2016 03:25 11,1 C 84 % 1001,6 hPa 0,0 mm W-NW 282 4,8 km/h (1 Bft)
14.05.2016 03:30 11,1 C 84 % 1001,6 hPa 0,0 mm W 264 6,4 km/h (2 Bft)
14.05.2016 03:35 11,1 C 84 % 1001,7 hPa 0,0 mm W 267 4,8 km/h (1 Bft)
14.05.2016 03:40 11,1 C 84 % 1001,8 hPa 0,0 mm W-SW 246 4,8 km/h (1 Bft)
14.05.2016 03:45 11,1 C 84 % 1001,7 hPa 0,0 mm W-SW 252 8,0 km/h (2 Bft)
14.05.2016 03:50 11,1 C 84 % 1001,8 hPa 0,0 mm W 267 6,4 km/h (2 Bft)
14.05.2016 03:55 11,1 C 84 % 1001,8 hPa 0,0 mm W 276 8,0 km/h (2 Bft)
14.05.2016 04:00 11,1 C 84 % 1001,8 hPa 0,2 mm W 281 8,0 km/h (2 Bft)
14.05.2016 04:05 11,1 C 84 % 1001,8 hPa 0,0 mm W 263 11,3 km/h (2 Bft)
14.05.2016 04:10 11,1 C 84 % 1001,8 hPa 0,0 mm W-SW 244 9,7 km/h (2 Bft)
14.05.2016 04:15 11,1 C 84 % 1001,9 hPa 0,0 mm W 273 6,4 km/h (2 Bft)
14.05.2016 04:20 11,1 C 84 % 1001,9 hPa 0,0 mm W-NW 287 8,0 km/h (2 Bft)
14.05.2016 04:25 11,1 C 84 % 1001,9 hPa 0,0 mm W 267 12,9 km/h (3 Bft)
14.05.2016 04:30 11,1 C 84 % 1001,9 hPa 0,0 mm W 264 12,9 km/h (3 Bft)
14.05.2016 04:35 11,1 C 84 % 1001,9 hPa 0,0 mm W 264 11,3 km/h (2 Bft)
14.05.2016 04:40 11,1 C 84 % 1002,0 hPa 0,0 mm W-SW 245 12,9 km/h (3 Bft)
14.05.2016 04:45 11,1 C 84 % 1002,0 hPa 0,0 mm W-SW 258 8,0 km/h (2 Bft)
14.05.2016 04:50 11,1 C 84 % 1002,0 hPa 0,0 mm W 280 14,5 km/h (3 Bft)
14.05.2016 04:55 11,1 C 84 % 1002,1 hPa 0,0 mm W-SW 252 11,3 km/h (2 Bft)
14.05.2016 05:00 11,1 C 84 % 1002,1 hPa 0,0 mm W-SW 257 16,1 km/h (3 Bft)
14.05.2016 05:05 11,0 C 84 % 1002,1 hPa 0,0 mm W-NW 292 12,9 km/h (3 Bft)
14.05.2016 05:10 11,0 C 84 % 1002,1 hPa 0,0 mm W-NW 289 11,3 km/h (2 Bft)
14.05.2016 05:15 11,0 C 84 % 1002,1 hPa 0,0 mm W 263 11,3 km/h (2 Bft)
14.05.2016 05:20 11,0 C 84 % 1002,1 hPa 0,0 mm W-SW 256 9,7 km/h (2 Bft)
14.05.2016 05:25 11,0 C 84 % 1002,1 hPa 0,0 mm W 275 9,7 km/h (2 Bft)
14.05.2016 05:30 11,0 C 84 % 1002,1 hPa 0,0 mm W 267 11,3 km/h (2 Bft)
14.05.2016 05:35 10,9 C 84 % 1002,1 hPa 0,2 mm W-SW 254 11,3 km/h (2 Bft)
14.05.2016 05:40 10,9 C 84 % 1002,2 hPa 0,0 mm W 261 16,1 km/h (3 Bft)
14.05.2016 05:45 10,9 C 84 % 1002,1 hPa 0,0 mm W 265 11,3 km/h (2 Bft)
14.05.2016 05:50 10,9 C 84 % 1002,2 hPa 0,0 mm W-SW 257 6,4 km/h (2 Bft)
14.05.2016 05:55 10,9 C 84 % 1002,2 hPa 0,0 mm W 275 8,0 km/h (2 Bft)
14.05.2016 06:00 10,9 C 84 % 1002,3 hPa 0,0 mm W 280 8,0 km/h (2 Bft)
14.05.2016 06:05 10,9 C 84 % 1002,3 hPa 0,0 mm W 277 8,0 km/h (2 Bft)
14.05.2016 06:10 10,9 C 84 % 1002,3 hPa 0,0 mm W 267 6,4 km/h (2 Bft)
14.05.2016 06:15 11,0 C 84 % 1002,3 hPa 0,0 mm W 267 8,0 km/h (2 Bft)
14.05.2016 06:20 10,9 C 84 % 1002,3 hPa 0,4 mm W-SW 257 6,4 km/h (2 Bft)
14.05.2016 06:25 10,9 C 84 % 1002,4 hPa 0,0 mm W-SW 253 9,7 km/h (2 Bft)
14.05.2016 06:30 10,9 C 84 % 1002,4 hPa 0,0 mm W 280 4,8 km/h (1 Bft)
14.05.2016 06:35 11,0 C 84 % 1002,5 hPa 0,0 mm W 280 1,6 km/h (1 Bft)
14.05.2016 06:40 11,0 C 84 % 1002,5 hPa 0,0 mm W 275 3,2 km/h (1 Bft)
14.05.2016 06:45 11,0 C 84 % 1002,5 hPa 0,0 mm W 275 3,2 km/h (1 Bft)
14.05.2016 06:50 11,0 C 84 % 1002,6 hPa 0,0 mm W 265 4,8 km/h (1 Bft)
14.05.2016 06:55 11,0 C 84 % 1002,7 hPa 0,0 mm W 266 3,2 km/h (1 Bft)
14.05.2016 07:00 11,1 C 84 % 1002,8 hPa 0,0 mm W-NW 288 3,2 km/h (1 Bft)
14.05.2016 07:05 11,1 C 84 % 1002,8 hPa 0,0 mm W 267 4,8 km/h (1 Bft)
14.05.2016 07:10 11,1 C 84 % 1002,8 hPa 0,0 mm W-SW 257 8,0 km/h (2 Bft)
14.05.2016 07:15 11,1 C 84 % 1002,8 hPa 0,0 mm W 267 8,0 km/h (2 Bft)
14.05.2016 07:20 11,1 C 84 % 1002,8 hPa 0,0 mm W 278 9,7 km/h (2 Bft)
14.05.2016 07:25 11,1 C 84 % 1002,8 hPa 0,0 mm W-SW 250 6,4 km/h (2 Bft)
14.05.2016 07:30 11,1 C 84 % 1002,9 hPa 0,0 mm W-SW 258 6,4 km/h (2 Bft)
14.05.2016 07:35 11,1 C 84 % 1002,9 hPa 0,0 mm W 267 11,3 km/h (2 Bft)
14.05.2016 07:40 11,1 C 84 % 1003,0 hPa 0,0 mm W 272 6,4 km/h (2 Bft)
14.05.2016 07:45 11,1 C 84 % 1003,0 hPa 0,0 mm W 275 11,3 km/h (2 Bft)
14.05.2016 07:50 11,1 C 84 % 1003,1 hPa 0,0 mm W 269 16,1 km/h (3 Bft)
14.05.2016 07:55 11,1 C 84 % 1003,0 hPa 0,0 mm W 261 12,9 km/h (3 Bft)
14.05.2016 08:00 11,1 C 84 % 1003,1 hPa 0,0 mm W 275 11,3 km/h (2 Bft)
14.05.2016 08:05 11,1 C 84 % 1003,1 hPa 0,0 mm W 264 6,4 km/h (2 Bft)
14.05.2016 08:10 11,1 C 84 % 1003,0 hPa 0,0 mm W 273 8,0 km/h (2 Bft)
14.05.2016 08:15 11,1 C 84 % 1003,0 hPa 0,0 mm W-NW 282 11,3 km/h (2 Bft)
14.05.2016 08:20 11,1 C 84 % 1003,0 hPa 0,0 mm W 271 6,4 km/h (2 Bft)
14.05.2016 08:25 11,2 C 83 % 1003,1 hPa 0,0 mm W 273 9,7 km/h (2 Bft)
14.05.2016 08:30 11,1 C 83 % 1003,1 hPa 0,2 mm W 262 6,4 km/h (2 Bft)
14.05.2016 08:35 11,2 C 83 % 1003,2 hPa 0,4 mm W 262 3,2 km/h (1 Bft)
14.05.2016 08:40 11,2 C 83 % 1003,3 hPa 0,6 mm W 265 4,8 km/h (1 Bft)
14.05.2016 08:45 11,2 C 83 % 1003,3 hPa 0,6 mm W 265 8,0 km/h (2 Bft)
14.05.2016 08:50 11,2 C 83 % 1003,4 hPa 0,2 mm W 277 9,7 km/h (2 Bft)
14.05.2016 08:55 11,2 C 83 % 1003,4 hPa 0,2 mm W 270 11,3 km/h (2 Bft)
14.05.2016 09:00 11,2 C 83 % 1003,5 hPa 0,0 mm W 264 8,0 km/h (2 Bft)
14.05.2016 09:05 11,2 C 83 % 1003,5 hPa 0,2 mm W 264 3,2 km/h (1 Bft)
14.05.2016 09:10 11,2 C 83 % 1003,5 hPa 0,2 mm W 269 8,0 km/h (2 Bft)
14.05.2016 09:15 11,3 C 83 % 1003,6 hPa 0,2 mm W 266 9,7 km/h (2 Bft)
14.05.2016 09:20 11,3 C 83 % 1003,7 hPa 0,2 mm W 259 9,7 km/h (2 Bft)
14.05.2016 09:25 11,3 C 83 % 1003,7 hPa 0,0 mm W-SW 257 11,3 km/h (2 Bft)
14.05.2016 09:30 11,3 C 83 % 1003,8 hPa 0,2 mm W-SW 255 12,9 km/h (3 Bft)
14.05.2016 09:35 11,3 C 83 % 1003,9 hPa 0,4 mm W-SW 242 14,5 km/h (3 Bft)
14.05.2016 09:40 11,3 C 83 % 1003,9 hPa 0,2 mm W 269 16,1 km/h (3 Bft)
14.05.2016 09:45 11,3 C 83 % 1004,0 hPa 0,4 mm W 264 14,5 km/h (3 Bft)
14.05.2016 09:50 11,3 C 83 % 1004,1 hPa 0,2 mm W 270 16,1 km/h (3 Bft)
14.05.2016 09:55 11,3 C 83 % 1004,0 hPa 0,0 mm W 265 14,5 km/h (3 Bft)
14.05.2016 10:00 11,3 C 83 % 1004,1 hPa 0,0 mm W-NW 287 12,9 km/h (3 Bft)
14.05.2016 10:05 11,3 C 84 % 1004,2 hPa 0,0 mm W 263 19,3 km/h (3 Bft)
14.05.2016 10:10 11,2 C 84 % 1004,3 hPa 0,0 mm W 271 17,7 km/h (3 Bft)
14.05.2016 10:15 11,2 C 84 % 1004,4 hPa 0,0 mm W-SW 254 14,5 km/h (3 Bft)
14.05.2016 10:20 11,2 C 84 % 1004,6 hPa 0,2 mm W 266 16,1 km/h (3 Bft)
14.05.2016 10:25 11,2 C 84 % 1004,7 hPa 0,0 mm W-NW 298 17,7 km/h (3 Bft)
14.05.2016 10:30 11,1 C 84 % 1004,8 hPa 0,2 mm W-SW 256 16,1 km/h (3 Bft)
14.05.2016 10:35 11,0 C 84 % 1005,0 hPa 0,0 mm W-SW 255 17,7 km/h (3 Bft)
14.05.2016 10:40 11,0 C 84 % 1005,2 hPa 0,0 mm W 262 9,7 km/h (2 Bft)
14.05.2016 10:45 10,9 C 84 % 1005,5 hPa 0,2 mm W 262 12,9 km/h (3 Bft)
14.05.2016 10:50 10,8 C 84 % 1005,5 hPa 0,0 mm W-NW 302 9,7 km/h (2 Bft)
14.05.2016 10:55 10,7 C 85 % 1005,6 hPa 0,0 mm W 262 6,4 km/h (2 Bft)
14.05.2016 11:00 10,7 C 85 % 1005,7 hPa 0,2 mm W 273 4,8 km/h (1 Bft)
14.05.2016 11:05 10,8 C 85 % 1005,7 hPa 0,0 mm W 260 4,8 km/h (1 Bft)
14.05.2016 11:10 11,0 C 85 % 1005,8 hPa 0,0 mm W-NW 284 8,0 km/h (2 Bft)
14.05.2016 11:15 11,1 C 85 % 1006,0 hPa 0,0 mm W-SW 246 9,7 km/h (2 Bft)
14.05.2016 11:20 11,3 C 85 % 1006,2 hPa 0,0 mm W-SW 248 14,5 km/h (3 Bft)
14.05.2016 11:25 11,5 C 85 % 1006,1 hPa 0,0 mm W 275 6,4 km/h (2 Bft)
14.05.2016 11:30 11,4 C 86 % 1006,3 hPa 0,2 mm W-NW 296 9,7 km/h (2 Bft)
14.05.2016 11:35 11,4 C 87 % 1006,3 hPa 0,0 mm W-NW 302 9,7 km/h (2 Bft)
14.05.2016 11:40 11,4 C 87 % 1006,4 hPa 0,0 mm W 273 8,0 km/h (2 Bft)
14.05.2016 11:45 11,4 C 87 % 1006,6 hPa 0,0 mm W-SW 257 8,0 km/h (2 Bft)
14.05.2016 11:50 11,4 C 88 % 1006,7 hPa 0,0 mm W-SW 254 17,7 km/h (3 Bft)
14.05.2016 11:55 11,6 C 87 % 1006,8 hPa 0,0 mm W-SW 246 6,4 km/h (2 Bft)
14.05.2016 12:00 11,6 C 88 % 1006,8 hPa 0,0 mm S-SO 160 3,2 km/h (1 Bft)
14.05.2016 12:05 11,3 C 87 % 1006,8 hPa 0,0 mm S-SO 160 6,4 km/h (2 Bft)
14.05.2016 12:10 11,3 C 87 % 1006,7 hPa 0,0 mm S-SO 165 3,2 km/h (1 Bft)
14.05.2016 12:15 11,3 C 86 % 1006,8 hPa 0,0 mm W-NW 286 6,4 km/h (2 Bft)
14.05.2016 12:20 11,5 C 85 % 1006,9 hPa 0,0 mm SW 230 3,2 km/h (1 Bft)
14.05.2016 12:25 11,6 C 86 % 1007,1 hPa 0,0 mm W 279 6,4 km/h (2 Bft)
14.05.2016 12:30 11,7 C 87 % 1007,2 hPa 0,0 mm N-NO 19 4,8 km/h (1 Bft)
14.05.2016 12:35 11,9 C 86 % 1007,3 hPa 0,0 mm W-NW 291 4,8 km/h (1 Bft)
14.05.2016 12:40 12,3 C 87 % 1007,3 hPa 0,0 mm W 269 9,7 km/h (2 Bft)
14.05.2016 12:45 12,8 C 87 % 1007,3 hPa 0,0 mm W 263 8,0 km/h (2 Bft)
14.05.2016 12:50 12,9 C 86 % 1007,2 hPa 0,0 mm W 264 11,3 km/h (2 Bft)
14.05.2016 12:55 13,2 C 86 % 1007,4 hPa 0,0 mm W 277 11,3 km/h (2 Bft)
14.05.2016 13:00 13,4 C 85 % 1007,3 hPa 0,0 mm W 274 11,3 km/h (2 Bft)
14.05.2016 13:05 13,6 C 82 % 1007,3 hPa 0,0 mm W 261 11,3 km/h (2 Bft)
14.05.2016 13:10 13,9 C 82 % 1007,3 hPa 0,0 mm W 267 11,3 km/h (2 Bft)
14.05.2016 13:15 14,1 C 81 % 1007,4 hPa 0,0 mm W 265 11,3 km/h (2 Bft)
14.05.2016 13:20 13,9 C 78 % 1007,3 hPa 0,0 mm W-NW 288 12,9 km/h (3 Bft)
14.05.2016 13:25 14,1 C 80 % 1007,4 hPa 0,0 mm W-SW 252 9,7 km/h (2 Bft)
14.05.2016 13:30 14,0 C 78 % 1007,5 hPa 0,0 mm W 269 16,1 km/h (3 Bft)
14.05.2016 13:35 13,9 C 75 % 1007,4 hPa 0,0 mm W-SW 253 12,9 km/h (3 Bft)
14.05.2016 13:40 13,6 C 76 % 1007,5 hPa 0,0 mm W 278 14,5 km/h (3 Bft)
14.05.2016 13:45 13,2 C 76 % 1007,7 hPa 0,0 mm W 262 14,5 km/h (3 Bft)
14.05.2016 13:50 13,0 C 79 % 1007,8 hPa 0,0 mm W 269 12,9 km/h (3 Bft)
14.05.2016 13:55 12,8 C 80 % 1007,8 hPa 0,0 mm W-NW 282 12,9 km/h (3 Bft)
14.05.2016 14:00 12,8 C 82 % 1007,8 hPa 0,0 mm W 265 9,7 km/h (2 Bft)
14.05.2016 14:05 12,8 C 83 % 1007,7 hPa 0,0 mm W-NW 283 11,3 km/h (2 Bft)
14.05.2016 14:10 12,7 C 83 % 1007,8 hPa 0,0 mm W-NW 284 9,7 km/h (2 Bft)
14.05.2016 14:15 12,7 C 84 % 1007,8 hPa 0,0 mm W-NW 284 3,2 km/h (1 Bft)
14.05.2016 14:20 12,6 C 82 % 1007,9 hPa 0,0 mm W-NW 284 4,8 km/h (1 Bft)
14.05.2016 14:25 12,5 C 84 % 1007,9 hPa 0,0 mm W 276 4,8 km/h (1 Bft)
14.05.2016 14:30 12,3 C 85 % 1008,0 hPa 0,2 mm W 273 6,4 km/h (2 Bft)
14.05.2016 14:35 12,2 C 86 % 1008,0 hPa 0,0 mm W-NW 291 4,8 km/h (1 Bft)
14.05.2016 14:40 12,1 C 86 % 1008,0 hPa 0,0 mm W-NW 282 4,8 km/h (1 Bft)
14.05.2016 14:45 12,1 C 86 % 1008,0 hPa 0,2 mm W 273 8,0 km/h (2 Bft)
14.05.2016 14:50 12,2 C 86 % 1007,9 hPa 0,0 mm W 270 4,8 km/h (1 Bft)
14.05.2016 14:55 12,3 C 84 % 1007,8 hPa 0,0 mm W 270 1,6 km/h (1 Bft)
14.05.2016 15:00 12,6 C 84 % 1007,7 hPa 0,0 mm S 184 4,8 km/h (1 Bft)
14.05.2016 15:05 12,7 C 83 % 1007,5 hPa 0,0 mm S-SO 157 3,2 km/h (1 Bft)
14.05.2016 15:10 13,4 C 82 % 1007,3 hPa 0,0 mm W-NW 296 6,4 km/h (2 Bft)
14.05.2016 15:15 13,7 C 81 % 1007,3 hPa 0,0 mm SO 130 11,3 km/h (2 Bft)
14.05.2016 15:20 13,4 C 81 % 1007,2 hPa 0,0 mm W-SW 250 8,0 km/h (2 Bft)
14.05.2016 15:25 13,3 C 80 % 1007,2 hPa 0,0 mm SO 138 8,0 km/h (2 Bft)
14.05.2016 15:30 13,6 C 80 % 1007,2 hPa 0,0 mm SO 144 6,4 km/h (2 Bft)
14.05.2016 15:35 13,5 C 76 % 1007,1 hPa 0,0 mm O-SO 105 8,0 km/h (2 Bft)
14.05.2016 15:40 13,7 C 77 % 1007,0 hPa 0,0 mm O 84 4,8 km/h (1 Bft)
14.05.2016 15:45 14,1 C 78 % 1007,0 hPa 0,0 mm NW 306 6,4 km/h (2 Bft)
14.05.2016 15:50 14,4 C 73 % 1006,9 hPa 0,0 mm W-SW 244 4,8 km/h (1 Bft)
14.05.2016 15:55 14,7 C 73 % 1006,9 hPa 0,0 mm W-NW 298 6,4 km/h (2 Bft)
14.05.2016 16:00 14,4 C 74 % 1006,8 hPa 0,0 mm S-SO 156 9,7 km/h (2 Bft)
14.05.2016 16:05 14,6 C 71 % 1006,9 hPa 0,0 mm O-NO 63 8,0 km/h (2 Bft)
14.05.2016 16:10 15,3 C 75 % 1006,8 hPa 0,0 mm W 265 8,0 km/h (2 Bft)
14.05.2016 16:15 15,6 C 71 % 1006,8 hPa 0,0 mm W-SW 255 8,0 km/h (2 Bft)
14.05.2016 16:20 15,6 C 72 % 1006,8 hPa 0,0 mm NW 306 11,3 km/h (2 Bft)
14.05.2016 16:25 15,5 C 69 % 1006,8 hPa 0,0 mm S-SO 162 14,5 km/h (3 Bft)
14.05.2016 16:30 15,6 C 70 % 1006,9 hPa 0,0 mm W 267 11,3 km/h (2 Bft)
14.05.2016 16:35 15,7 C 68 % 1006,9 hPa 0,0 mm W-NW 297 12,9 km/h (3 Bft)
14.05.2016 16:40 15,4 C 70 % 1006,9 hPa 0,0 mm W 279 9,7 km/h (2 Bft)
14.05.2016 16:45 15,2 C 70 % 1007,0 hPa 0,0 mm W 276 12,9 km/h (3 Bft)
14.05.2016 16:50 15,2 C 70 % 1007,0 hPa 0,0 mm W 272 8,0 km/h (2 Bft)
14.05.2016 16:55 15,3 C 71 % 1007,0 hPa 0,0 mm W 279 9,7 km/h (2 Bft)
14.05.2016 17:00 15,3 C 71 % 1007,0 hPa 0,0 mm W-SW 257 12,9 km/h (3 Bft)
14.05.2016 17:05 15,4 C 70 % 1007,0 hPa 0,0 mm W 267 14,5 km/h (3 Bft)
14.05.2016 17:10 15,3 C 71 % 1007,0 hPa 0,0 mm W 271 11,3 km/h (2 Bft)
14.05.2016 17:15 15,3 C 71 % 1007,1 hPa 0,0 mm W-SW 258 9,7 km/h (2 Bft)
14.05.2016 17:20 15,4 C 70 % 1007,2 hPa 0,0 mm W 264 14,5 km/h (3 Bft)
14.05.2016 17:25 15,6 C 69 % 1007,2 hPa 0,0 mm W 271 12,9 km/h (3 Bft)
14.05.2016 17:30 15,6 C 70 % 1007,2 hPa 0,0 mm W-SW 248 9,7 km/h (2 Bft)
14.05.2016 17:35 15,5 C 66 % 1007,2 hPa 0,0 mm W-NW 286 16,1 km/h (3 Bft)
14.05.2016 17:40 15,6 C 67 % 1007,2 hPa 0,0 mm W 275 16,1 km/h (3 Bft)
14.05.2016 17:45 15,9 C 66 % 1007,2 hPa 0,0 mm W 269 12,9 km/h (3 Bft)
14.05.2016 17:50 16,3 C 65 % 1007,1 hPa 0,0 mm W-NW 282 14,5 km/h (3 Bft)
14.05.2016 17:55 16,0 C 65 % 1007,2 hPa 0,0 mm W 262 14,5 km/h (3 Bft)
14.05.2016 18:00 15,6 C 66 % 1007,2 hPa 0,0 mm W 267 12,9 km/h (3 Bft)
14.05.2016 18:05 15,1 C 65 % 1007,2 hPa 0,0 mm W-SW 257 14,5 km/h (3 Bft)
14.05.2016 18:10 14,9 C 67 % 1007,2 hPa 0,0 mm W-SW 249 9,7 km/h (2 Bft)
14.05.2016 18:15 14,8 C 67 % 1007,3 hPa 0,0 mm W 271 11,3 km/h (2 Bft)
14.05.2016 18:20 14,6 C 68 % 1007,3 hPa 0,0 mm W-SW 252 11,3 km/h (2 Bft)
14.05.2016 18:25 14,4 C 69 % 1007,3 hPa 0,0 mm W-SW 252 11,3 km/h (2 Bft)
14.05.2016 18:30 14,3 C 72 % 1007,3 hPa 0,0 mm W 274 9,7 km/h (2 Bft)
14.05.2016 18:35 14,3 C 72 % 1007,5 hPa 0,0 mm W-NW 291 6,4 km/h (2 Bft)
14.05.2016 18:40 14,2 C 74 % 1007,5 hPa 0,0 mm W-SW 256 8,0 km/h (2 Bft)
14.05.2016 18:45 14,1 C 74 % 1007,5 hPa 0,0 mm W 259 6,4 km/h (2 Bft)
14.05.2016 18:50 13,9 C 76 % 1007,5 hPa 0,0 mm W 274 8,0 km/h (2 Bft)
14.05.2016 18:55 13,8 C 77 % 1007,5 hPa 0,0 mm W 266 4,8 km/h (1 Bft)
14.05.2016 19:00 13,6 C 79 % 1007,5 hPa 0,0 mm W 266 1,6 km/h (1 Bft)
14.05.2016 19:05 13,6 C 80 % 1007,6 hPa 0,0 mm W 266 3,2 km/h (1 Bft)
14.05.2016 19:10 13,7 C 80 % 1007,6 hPa 0,0 mm W 266 0,0 km/h (0 Bft)
14.05.2016 19:15 13,7 C 79 % 1007,7 hPa 0,0 mm W 269 6,4 km/h (2 Bft)
14.05.2016 19:20 13,8 C 79 % 1007,7 hPa 0,0 mm W 269 4,8 km/h (1 Bft)
14.05.2016 19:25 13,7 C 79 % 1007,7 hPa 0,0 mm W 269 3,2 km/h (1 Bft)
14.05.2016 19:30 13,6 C 80 % 1007,8 hPa 0,0 mm W 269 1,6 km/h (1 Bft)
14.05.2016 19:35 13,5 C 80 % 1007,8 hPa 0,0 mm W 269 1,6 km/h (1 Bft)
14.05.2016 19:40 13,3 C 81 % 1007,9 hPa 0,0 mm W 269 1,6 km/h (1 Bft)
14.05.2016 19:45 13,1 C 82 % 1007,9 hPa 0,0 mm W 269 3,2 km/h (1 Bft)
14.05.2016 19:50 12,9 C 83 % 1007,9 hPa 0,0 mm W 270 3,2 km/h (1 Bft)
14.05.2016 19:55 12,8 C 83 % 1007,9 hPa 0,0 mm W 270 3,2 km/h (1 Bft)
14.05.2016 20:00 12,5 C 85 % 1008,0 hPa 0,0 mm W 269 0,0 km/h (0 Bft)
14.05.2016 20:05 12,4 C 86 % 1008,1 hPa 0,0 mm W 269 0,0 km/h (0 Bft)
14.05.2016 20:10 12,3 C 86 % 1008,2 hPa 0,0 mm W 269 3,2 km/h (1 Bft)
14.05.2016 20:15 12,4 C 86 % 1008,4 hPa 0,0 mm W-SW 256 8,0 km/h (2 Bft)
14.05.2016 20:20 12,2 C 85 % 1008,5 hPa 0,2 mm W 272 17,7 km/h (3 Bft)
14.05.2016 20:25 11,9 C 86 % 1008,6 hPa 0,0 mm W-NW 284 11,3 km/h (2 Bft)
14.05.2016 20:30 11,8 C 86 % 1008,9 hPa 0,2 mm W-SW 252 12,9 km/h (3 Bft)
14.05.2016 20:35 11,6 C 86 % 1008,9 hPa 0,0 mm W 259 17,7 km/h (3 Bft)
14.05.2016 20:40 11,4 C 87 % 1009,1 hPa 0,0 mm W 267 12,9 km/h (3 Bft)
14.05.2016 20:45 11,3 C 87 % 1009,1 hPa 0,0 mm W 273 19,3 km/h (3 Bft)
14.05.2016 20:50 11,1 C 87 % 1009,2 hPa 0,0 mm W 265 19,3 km/h (3 Bft)
14.05.2016 20:55 10,9 C 87 % 1009,3 hPa 0,0 mm W 278 14,5 km/h (3 Bft)
14.05.2016 21:00 10,9 C 87 % 1009,5 hPa 0,0 mm W-NW 283 11,3 km/h (2 Bft)
14.05.2016 21:05 10,8 C 87 % 1009,7 hPa 0,0 mm W 261 8,0 km/h (2 Bft)
14.05.2016 21:10 10,8 C 87 % 1009,8 hPa 0,0 mm W 263 9,7 km/h (2 Bft)
14.05.2016 21:15 10,7 C 88 % 1010,0 hPa 0,0 mm W 268 11,3 km/h (2 Bft)
14.05.2016 21:20 10,6 C 88 % 1010,0 hPa 0,0 mm W 271 16,1 km/h (3 Bft)
14.05.2016 21:25 10,5 C 88 % 1010,1 hPa 0,0 mm W-SW 258 14,5 km/h (3 Bft)
14.05.2016 21:30 10,4 C 88 % 1010,2 hPa 0,2 mm W 262 8,0 km/h (2 Bft)
14.05.2016 21:35 10,4 C 88 % 1010,3 hPa 0,0 mm W-NW 283 9,7 km/h (2 Bft)
14.05.2016 21:40 10,3 C 88 % 1010,3 hPa 0,0 mm W 270 19,3 km/h (3 Bft)
14.05.2016 21:45 10,2 C 88 % 1010,4 hPa 0,0 mm W 278 14,5 km/h (3 Bft)
14.05.2016 21:50 10,1 C 88 % 1010,5 hPa 0,2 mm W 265 12,9 km/h (3 Bft)
14.05.2016 21:55 10,0 C 88 % 1010,5 hPa 0,0 mm W-NW 298 14,5 km/h (3 Bft)
14.05.2016 22:00 9,9 C 88 % 1010,7 hPa 0,0 mm W 265 16,1 km/h (3 Bft)
14.05.2016 22:05 9,9 C 88 % 1010,7 hPa 0,0 mm W 269 9,7 km/h (2 Bft)
14.05.2016 22:10 9,9 C 88 % 1010,8 hPa 0,0 mm W 263 11,3 km/h (2 Bft)
14.05.2016 22:15 9,8 C 87 % 1010,9 hPa 0,2 mm W-NW 286 6,4 km/h (2 Bft)
14.05.2016 22:20 9,8 C 87 % 1011,0 hPa 0,0 mm W 273 11,3 km/h (2 Bft)
14.05.2016 22:25 9,8 C 87 % 1011,0 hPa 0,0 mm W 261 12,9 km/h (3 Bft)
14.05.2016 22:30 9,8 C 87 % 1011,1 hPa 0,2 mm W 265 11,3 km/h (2 Bft)
14.05.2016 22:35 9,7 C 87 % 1011,0 hPa 0,2 mm W 264 9,7 km/h (2 Bft)
14.05.2016 22:40 9,7 C 87 % 1011,1 hPa 0,0 mm W-SW 254 8,0 km/h (2 Bft)
14.05.2016 22:45 9,7 C 87 % 1011,2 hPa 0,2 mm W 281 8,0 km/h (2 Bft)
14.05.2016 22:50 9,6 C 87 % 1011,3 hPa 0,6 mm W 261 6,4 km/h (2 Bft)
14.05.2016 22:55 9,6 C 86 % 1011,3 hPa 0,2 mm W-SW 255 8,0 km/h (2 Bft)
14.05.2016 23:00 9,6 C 86 % 1011,4 hPa 0,2 mm W 278 11,3 km/h (2 Bft)
14.05.2016 23:05 9,4 C 86 % 1011,5 hPa 0,2 mm W-SW 244 11,3 km/h (2 Bft)
14.05.2016 23:10 9,3 C 86 % 1011,5 hPa 0,4 mm W-NW 290 9,7 km/h (2 Bft)
14.05.2016 23:15 9,1 C 86 % 1011,7 hPa 0,6 mm W 265 20,9 km/h (4 Bft)
14.05.2016 23:20 9,0 C 86 % 1011,9 hPa 0,8 mm W 267 16,1 km/h (3 Bft)
14.05.2016 23:25 9,0 C 86 % 1012,1 hPa 0,2 mm W 261 9,7 km/h (2 Bft)
14.05.2016 23:30 9,1 C 86 % 1012,0 hPa 0,4 mm W 265 9,7 km/h (2 Bft)
14.05.2016 23:35 9,0 C 86 % 1012,1 hPa 0,4 mm W 273 9,7 km/h (2 Bft)
14.05.2016 23:40 8,9 C 86 % 1012,0 hPa 0,8 mm W 281 9,7 km/h (2 Bft)
14.05.2016 23:45 8,8 C 86 % 1012,1 hPa 0,0 mm W 264 14,5 km/h (3 Bft)
14.05.2016 23:50 8,8 C 86 % 1012,1 hPa 0,2 mm W-SW 252 11,3 km/h (2 Bft)
14.05.2016 23:55 8,8 C 86 % 1012,2 hPa 0,0 mm W 271 11,3 km/h (2 Bft)
_ Min-Zeit 23:45 17:50 00:00 - - - 19:10
Minimum _ 8,8 C 65 % 1001,4 hPa - - - 0,0 km/h (0 Bft)
_ Max-Zeit 17:50 11:50 23:55 23:20 - - 23:15
Maximum _ 16,3 C 88 % 1012,2 hPa 0,8 mm - - 20,9 km/h
W (4 Bft)
Durchschnitt _ 11,9 C 82 % 1005,6 hPa #17,4 mm W - 9,5 km/h (2 Bft)